Regional Weather Roundup
Issued by NWS Charleston, SC

Current Version | Previous Version | Graphics & Text | Print | Product List | Glossary On
Versions: 1 2 3 4 5 6 7 8 9 10 11 12 13 14 15 16 17 18 19 20 21 22 23 24 25 26 27 28 29 30 31 32 33 34 35 36 37 38 39 40 41 42 43 44 45 46 47 48 49 50
000
ASUS42 KCHS 210712
RWRCHS

REGIONAL WEATHER ROUNDUP
NATIONAL WEATHER SERVICE CHARLESTON SC
300 AM EDT SAT OCT 21 2017

NOTE: "FAIR" INDICATES FEW OR NO CLOUDS BELOW 12,000 FEET WITH NO
SIGNIFICANT WEATHER AND/OR OBSTRUCTIONS TO VISIBILITY.

NOT ALL STATIONS ARE QUALITY CONTROLLED. USE DATA WITH CAUTION...
ESPECIALLY DEWPOINT OBSERVATIONS.

SCZ027-030-031-034>040-042>050-210800-
...SOUTHEAST SOUTH CAROLINA...

CITY           SKY/WX    TMP DP  RH WIND       PRES   REMARKS
N CHARLESTON   CLEAR     57  57 100 CALM      30.22S
WATERFRONT PRK   N/A     67  65  93 VRB2      30.08S
JOHNS ISLAND   FAIR      57  55  94 CALM      30.22F
PINOPOLIS        N/A    N/A N/A N/A CALM      30.14S
MONCKS CORNER  FAIR      54  52  94 CALM      30.23S
SUMMERVILLE    FAIR      52  50  93 CALM      30.23F
BEAUFORT MCAS  PTCLDY    58  58 100 MISG      30.21F FOG
BEAUFORT ARPT  FAIR      61  61 100 NE3       30.21F FOG
HILTON HEAD IS CLEAR     61  59  94 NE3       30.21F
WALTERBORO     MOSUNNY   50  48  93 CALM      30.23F
ALLENDALE        N/A     52  50  93 CALM        N/A

...SOUTHERN MIDLANDS AND PEE DEE...

CITY           SKY/WX    TMP DP  RH WIND       PRES   REMARKS
GEORGETOWN     NOT AVBL
KINGSTREE      FAIR      50  48  93 CALM      30.24S
ORANGEBURG     CLEAR     51  49  92 CALM      30.24S
BARNWELL         N/A     50  48  93 CALM      30.24S
AIKEN          FAIR      46  46 100 CALM      30.27S
MANNING        HAZE      50  43  76 MISG      30.24S VSB<1/4
COLUMBIA       PTCLDY    51  49  92 CALM      30.23F
SUMTER         CLEAR     52  49  89 CALM      30.22S
FLORENCE       PTCLDY    52  50  93 CALM      30.25S
MYRTLE BEACH   CLEAR     57  56  96 CALM      30.25S
N MYRTLE BEACH CLEAR     54  54 100 CALM      30.23F

$$

GAZ063-065-086>088-099>101-113>116-118-119-134>141-150-210800-
...SOUTHEAST GEORGIA...

CITY           SKY/WX    TMP DP  RH WIND       PRES   REMARKS
SAVANNAH ARPT  CLEAR     58  57  97 CALM      30.21S
HUNTER AAF     CLEAR     62  60  93 CALM      30.18S
FORT STEWART   PTCLDY    59  57  94 CALM      30.18S
STATESBORO     CLEAR     54  54 100 CALM      30.22S
SYLVANIA       MOSUNNY   53  53 100 CALM      30.23S
CLAXTON          N/A     54  54  99 CALM      30.22S FOG

...CSRA...CENTRAL AND FAR SOUTHEAST GEORGIA...

CITY           SKY/WX    TMP DP  RH WIND       PRES   REMARKS
THOMSON        CLEAR     46  44  94 CALM      30.28S
AUGUSTA-BUSH   CLEAR     49  48  97 CALM      30.23S
AUGUSTA-DANIEL CLEAR     60  47  61 CALM      30.24R
SWAINSBORO     FAIR      54  54 100 CALM      30.22F
VIDALIA        CLEAR     59  57  94 CALM      30.22S
EASTMAN        FAIR      51  51 100 CALM      30.24S
HAZLEHURST     FAIR      64  61  90 E3        30.20S
ALMA           CLEAR     62  60  93 CALM      30.19F
WAYCROSS       CLEAR     61  58  90 E5        30.19F
JESUP          NOT AVBL
BAXLEY         FAIR      59  59 100 NE3       30.20S
BRUNSWICK      FOG       61  59  94 CALM      30.19S VSB 3/4
SAINT SIMONS   CLEAR     73  68  84 NE6       30.17F

$$

SCZ027-028-034-036>038-045-046-048>050-GAZ119-141-210800-
...LAKE AND SUPPLEMENTAL COASTAL OBSERVATIONS...

STATION/POSITION TIME  TEMP    WIND        PRES    WAVE   SWELL
                       AIR SEA DIR/SP/G            HT/PER HT/PER/DIR
                 (UTC) (F)     (DEG/KT/KT) (MB)    (FT/S) (FT/S/D)
WINYAH BAY       0545   56     320/  2     1024.0
LAKE MURRAY      0620   58        CALM     1023.4
ACE BASIN NERRS  0545   61        CALM     1023.0
FORT PULASKI     0636   73 73   70/  7/  8 1023.1F
SAPELO ISLAND    NOT AVBL

$$

ANZ835-935-AMZ111-154-330-350-352-354-370-450-454-472-210800-
...C-MAN AND BUOY OBSERVATIONS...

STATION/POSITION TIME  TEMP    WIND        PRES    WAVE   SWELL
                       AIR SEA DIR/SP/G            HT/PER HT/PER/DIR
                 (UTC) (F)     (DEG/KT/KT) (MB)    (FT/S) (FT/S/D)
BUOY 41004       0650   75 80   50/  6/ 10 1022.5F   3/ 8   3/100/ 8
BUOY 41008       0550   76 77   80/ 14/ 17 1021.7    3/ 9   2/110/ 9
FOLLY BEACH CMAN 0600   72      90/  5/  6 1024.0S
CAPERS NEARSHORE 0608   70 73   80/  6/  8 1023.3F
FRIPP NEARSHORE  0608   74     100/  8/ 12   N/A


STATION/POSITION TIME  TEMP    WIND        PRES    WAVE   SWELL
                       AIR SEA DIR/SP/G            HT/PER HT/PER/DIR
                 (UTC) (F)     (DEG/KT/KT) (MB)    (FT/S) (FT/S/D)
5E ST. MARYS GA  0630      77                N/A     4/ 5
FRYING PAN BUOY  0650   73 76   70/  4/  6 1023.3F   3/ 9   3/130/ 9
BUOY 41025       0650   74 81   20/  8/ 10 1024.0S   2/ 9   2/120/ 9
CAPE LOOKOUT NC  0600   68     340/  4/  4 1024.3R
BUOY 41002       0650   76 80   60/ 10/ 14 1022.3F   5/ 9   5/ 80/ 9
BUOY 41010       NOT AVBL
ST AUGUSTINE FL  0700   79 77   90/ 16/ 17 1020.4F


$$




USA.gov is the U.S. government's official web portal to all federal, state and local government web resources and services.